Weather History for KIAG - August, 2013

Change the Weather History Date:

Sunday, August 18, 2013

  Actual Average Record
Temperature  
Mean Temperature 67 °F -  
Max Temperature 80 °F 77 °F 85 °F (1993)
Min Temperature 55 °F 58 °F 50 °F (1992)
Cooling Degree Days 2    
Growing Degree Days 17 (Base 50)    
Moisture  
Dew Point 57 °F    
Average Humidity 71    
Maximum Humidity 90    
Minimum Humidity 40    
Precipitation  
Precipitation 0.00 in - - ()
Sea Level Pressure  
Sea Level Pressure 30.19 in    
Wind  
Wind Speed 2 mph (East)    
Max Wind Speed 7 mph    
Max Gust Speed -    
Visibility 10 miles    
Events      
Averages and records for this station are not official NWS values.
T = Trace of Precipitation, MM = Missing Value Source: NWS Daily Summary

Daily Weather History Graph

Daily Weather History Graph

Search for Another Location

Airport or City:

Trip Planner

Search our weather history database for the weather conditions in past years. The results will help you decide how hot, cold, wet, or windy it might be!

Date:

Astronomy

Aug. 18, 2013 Rise Set
Actual Time 6:24 AM EDT 8:13 PM EDT
Civil Twilight 5:54 AM EDT 8:43 PM EDT
Nautical Twilight 5:17 AM EDT 9:20 PM EDT
Astronomical Twilight 4:37 AM EDT 10:00 PM EDT
Moon 6:19 PM EDT (8/18) 3:30 AM EDT (8/18)
Length of Visible Light 14h 49m
Length of Day
13h 48m
Waxing Gibbous, 92% of the Moon is Illuminated
Aug 18
Waxing Gibbous
Aug 20
Full
Aug 28
Last Quarter
Sep 5
New
Sep 12
First Quarter

Hourly Weather History & Observations

Time (EDT) Temp. Dew Point Humidity Pressure Visibility Wind Dir Wind Speed Gust Speed Precip Events Conditions
12:53 AM 61.0 °F 55.9 °F 83% 30.24 in 10.0 mi Calm Calm - N/A   Clear
1:53 AM 59.0 °F 55.9 °F 90% 30.23 in 10.0 mi East 3.5 mph - N/A   Clear
2:53 AM 59.0 °F 55.0 °F 87% 30.21 in 10.0 mi East 3.5 mph - N/A   Clear
3:53 AM 57.9 °F 54.0 °F 87% 30.22 in 10.0 mi Calm Calm - N/A   Clear
4:53 AM 57.0 °F 53.1 °F 87% 30.22 in 10.0 mi Calm Calm - N/A   Clear
5:53 AM 55.9 °F 53.1 °F 90% 30.22 in 10.0 mi Calm Calm - N/A   Clear
6:53 AM 55.9 °F 52.0 °F 87% 30.22 in 10.0 mi East 3.5 mph - N/A   Clear
6:59 AM 55.4 °F 51.8 °F 88% 30.23 in 10.0 mi ENE 3.5 mph - N/A   Mostly Cloudy
7:53 AM 59.0 °F 54.0 °F 83% 30.23 in 9.0 mi Calm Calm - N/A   Mostly Cloudy
8:53 AM 64.9 °F 57.9 °F 78% 30.25 in 10.0 mi Calm Calm - N/A   Mostly Cloudy
9:53 AM 70.0 °F 59.0 °F 68% 30.24 in 10.0 mi Calm Calm - N/A   Mostly Cloudy
10:53 AM 72.0 °F 57.9 °F 61% 30.24 in 10.0 mi Calm Calm - N/A   Mostly Cloudy
11:53 AM 75.0 °F 57.9 °F 55% 30.23 in 10.0 mi South 3.5 mph - N/A   Mostly Cloudy
12:53 PM 75.9 °F 57.0 °F 52% 30.20 in 10.0 mi Calm Calm - N/A   Mostly Cloudy
1:53 PM 78.1 °F 55.0 °F 45% 30.18 in 10.0 mi South 6.9 mph - N/A   Mostly Cloudy
2:53 PM 78.1 °F 54.0 °F 43% 30.17 in 10.0 mi Variable 3.5 mph - N/A   Mostly Cloudy
3:53 PM 79.0 °F 53.1 °F 40% 30.15 in 10.0 mi Calm Calm - N/A   Scattered Clouds
4:53 PM 78.1 °F 55.0 °F 45% 30.14 in 10.0 mi WSW 5.8 mph - N/A   Scattered Clouds
5:53 PM 78.1 °F 62.1 °F 58% 30.14 in 10.0 mi NNE 5.8 mph - N/A   Scattered Clouds
6:53 PM 75.9 °F 61.0 °F 60% 30.14 in 10.0 mi NNE 4.6 mph - N/A   Scattered Clouds
7:53 PM 73.0 °F 61.0 °F 66% 30.12 in 10.0 mi NE 4.6 mph - N/A   Scattered Clouds
8:53 PM 70.0 °F 60.1 °F 71% 30.12 in 10.0 mi Calm Calm - N/A   Scattered Clouds
9:53 PM 66.9 °F 60.1 °F 79% 30.12 in 10.0 mi SSE 4.6 mph - N/A   Partly Cloudy
10:53 PM 66.9 °F 60.1 °F 79% 30.12 in 10.0 mi Calm Calm - N/A   Partly Cloudy
11:53 PM 64.9 °F 59.0 °F 81% 30.12 in 10.0 mi Calm Calm - N/A   Clear